Weather History for Du Bois, PA

Change the Weather History Date:

Thursday, September 27, 2012

  Actual Average Record
Temperature  
Mean Temperature 60 °F 55 °F  
Max Temperature 64 °F 65 °F 77 °F (1973)
Min Temperature 55 °F 46 °F 34 °F (1989)
Degree Days  
Heating Degree Days 5 10  
Month to date heating degree days 160 151  
Since 1 July heating degree days 182 213  
Cooling Degree Days 0 0  
Month to date cooling degree days 58 28  
Year to date cooling degree days 545 359  
Growing Degree Days 10 (Base 50)    
Moisture  
Dew Point 56 °F    
Average Humidity 85    
Maximum Humidity 97    
Minimum Humidity 72    
Precipitation  
Precipitation 0.62 in 0.11 in 1.59 in (2002)
Month to date precipitation 4.08 3.31  
Sea Level Pressure  
Sea Level Pressure 30.14 in    
Wind  
Wind Speed 4 mph (NE)    
Max Wind Speed 9 mph    
Max Gust Speed 13 mph    
Visibility 5 miles    
Events Rain    
T = Trace of Precipitation, MM = Missing Value Source: NWS Daily Summary

Daily Weather History Graph

Daily Weather History Graph

Search for Another Location

Airport:

Trip Planner

Search our weather history database for the weather conditions in past years. The results will help you decide how hot, cold, wet, or windy it might be!

Date:

Astronomy

Sep. 27, 2012 Rise Set
Actual Time 7:08 AM EDT 7:03 PM EDT
Civil Twilight 6:41 AM EDT 7:30 PM EDT
Nautical Twilight 6:09 AM EDT 8:02 PM EDT
Astronomical Twilight 5:36 AM EDT 8:35 PM EDT
Moon 5:34 PM EDT (9/27) 4:34 AM EDT (9/27)
Length of Visible Light 12h 49m
Length of Day
11h 54m
Waxing Gibbous, 94% of the Moon is Illuminated
Sep 27
Waxing Gibbous
Sep 29
Full
Oct 8
Last Quarter
Oct 15
New
Oct 21
First Quarter

Hourly Weather History & Observations

Time (EDT) Temp. Dew Point Humidity Pressure Visibility Wind Dir Wind Speed Gust Speed Precip Events Conditions
12:56 AM 61.0 °F 59.0 °F 93% 30.10 in 5.0 mi West 9.2 mph - N/A   Overcast
1:56 AM 60.1 °F 59.0 °F 96% 30.12 in 3.0 mi WSW 4.6 mph - N/A   Overcast
2:06 AM 60.8 °F 59.0 °F 94% 30.12 in 2.0 mi WSW 5.8 mph - N/A   Overcast
2:30 AM 60.8 °F 59.0 °F 94% 30.12 in 5.0 mi West 3.5 mph - N/A   Overcast
2:56 AM 60.8 °F 59.0 °F 94% 30.12 in 4.0 mi WNW 3.5 mph - N/A   Overcast
3:38 AM 60.8 °F 57.2 °F 88% 30.13 in 5.0 mi Calm Calm - N/A   Overcast
3:53 AM 60.8 °F 57.2 °F 88% 30.12 in 8.0 mi NNW 3.5 mph - N/A   Overcast
3:56 AM 60.1 °F 57.9 °F 93% 30.11 in 8.0 mi Calm Calm - N/A   Overcast
4:04 AM 59.0 °F 57.2 °F 94% 30.12 in 7.0 mi Calm Calm - N/A   Overcast
4:10 AM 59.0 °F 57.2 °F 94% 30.13 in 1.8 mi Calm Calm - N/A   Overcast
4:20 AM 59.0 °F 57.2 °F 94% 30.13 in 1.0 mi West 3.5 mph - N/A   Overcast
4:56 AM 59.0 °F 57.9 °F 96% 30.13 in 1.5 mi Calm Calm - N/A   Overcast
5:07 AM 59.0 °F 57.2 °F 94% 30.14 in 2.5 mi Calm Calm - N/A   Overcast
5:14 AM 59.0 °F 57.2 °F 94% 30.15 in 3.0 mi WNW 3.5 mph - N/A   Overcast
5:32 AM 59.0 °F 57.2 °F 94% 30.15 in 7.0 mi NW 3.5 mph - N/A   Overcast
5:56 AM 59.0 °F 57.0 °F 93% 30.15 in 7.0 mi NNW 3.5 mph - N/A   Overcast
6:10 AM 59.0 °F 57.2 °F 94% 30.17 in 7.0 mi NNW 3.5 mph - N/A   Overcast
6:17 AM 57.2 °F 57.2 °F 100% 30.17 in 7.0 mi NNW 3.5 mph - N/A   Overcast
6:30 AM 59.0 °F 55.4 °F 88% 30.17 in 9.0 mi NNW 3.5 mph - N/A   Overcast
6:52 AM 57.2 °F 55.4 °F 94% 30.18 in 7.0 mi North 3.5 mph - N/A   Overcast
6:56 AM 57.9 °F 55.9 °F 93% 30.17 in 7.0 mi North 3.5 mph - N/A   Overcast
7:06 AM 57.2 °F 55.4 °F 94% 30.18 in 4.0 mi North 4.6 mph - N/A   Mostly Cloudy
7:28 AM 57.2 °F 55.4 °F 94% 30.19 in 4.0 mi NNE 5.8 mph - N/A   Mostly Cloudy
7:56 AM 57.0 °F 55.0 °F 93% 30.19 in 4.0 mi NNE 6.9 mph - N/A   Overcast
8:56 AM 55.9 °F 54.0 °F 93% 30.20 in 3.0 mi NE 6.9 mph - N/A   Overcast
9:56 AM 55.9 °F 52.0 °F 87% 30.20 in 9.0 mi NE 5.8 mph - N/A   Overcast
10:11 AM 55.4 °F 51.8 °F 88% 30.21 in 10.0 mi NE 8.1 mph - N/A   Overcast
10:56 AM 57.9 °F 52.0 °F 81% 30.21 in 10.0 mi NE 3.5 mph - N/A   Overcast
11:56 AM 60.1 °F 52.0 °F 75% 30.19 in 10.0 mi ENE 3.5 mph - N/A   Overcast
12:56 PM 63.0 °F 54.0 °F 72% 30.17 in 10.0 mi East 4.6 mph - N/A   Mostly Cloudy
1:38 PM 64.4 °F 53.6 °F 68% 30.18 in 10.0 mi NE 4.6 mph - N/A   Overcast
1:56 PM 63.0 °F 54.0 °F 72% 30.15 in 10.0 mi ENE 5.8 mph - N/A   Overcast
2:56 PM 62.1 °F 55.9 °F 80% 30.15 in 6.0 mi ENE 4.6 mph - 0.00 in Rain Light Rain
3:56 PM 61.0 °F 57.0 °F 87% 30.13 in 5.0 mi East 3.5 mph - 0.05 in Rain Light Rain
4:10 PM 60.8 °F 57.2 °F 88% 30.14 in 6.0 mi ENE 5.8 mph - 0.01 in Rain Light Rain
4:41 PM 60.8 °F 57.2 °F 88% 30.14 in 4.0 mi East 5.8 mph - 0.03 in Rain Light Rain
4:56 PM 59.0 °F 57.0 °F 93% 30.13 in 4.0 mi East 3.5 mph - 0.05 in Rain Light Rain
5:32 PM 59.0 °F 57.2 °F 94% 30.13 in 3.0 mi ENE 4.6 mph - 0.03 in Rain Light Rain
5:36 PM 59.0 °F 57.2 °F 94% 30.13 in 4.0 mi ENE 4.6 mph - 0.03 in Rain Light Rain
5:47 PM 59.0 °F 57.2 °F 94% 30.13 in 3.0 mi ENE 4.6 mph - 0.04 in Rain Light Rain
5:53 PM 59.0 °F 57.2 °F 94% 30.13 in 2.5 mi ENE 4.6 mph - 0.05 in Rain Light Rain
5:56 PM 59.0 °F 57.9 °F 96% 30.12 in 2.5 mi ENE 4.6 mph - 0.05 in Rain Light Rain
6:08 PM 59.0 °F 57.2 °F 94% 30.13 in 3.0 mi ENE 5.8 mph - 0.01 in Rain Light Rain
6:38 PM 59.0 °F 57.2 °F 94% 30.12 in 2.5 mi ENE 6.9 mph - 0.03 in Rain Light Rain
6:48 PM 59.0 °F 57.2 °F 94% 30.12 in 2.5 mi ENE 6.9 mph - 0.03 in Rain Light Rain
6:56 PM 59.0 °F 57.0 °F 93% 30.11 in 3.0 mi ENE 6.9 mph - 0.04 in Rain Light Rain
7:23 PM 57.2 °F 55.4 °F 94% 30.11 in 3.0 mi ENE 6.9 mph - 0.03 in Rain Light Rain
7:45 PM 57.2 °F 55.4 °F 94% 30.11 in 4.0 mi East 6.9 mph - 0.07 in Rain Light Rain
7:53 PM 57.2 °F 55.4 °F 94% 30.11 in 3.0 mi East 4.6 mph - 0.08 in Rain Light Rain
7:56 PM 57.9 °F 55.9 °F 93% 30.11 in 3.0 mi East 4.6 mph - 0.09 in Rain Light Rain
8:08 PM 57.2 °F 55.4 °F 94% 30.11 in 2.5 mi ENE 5.8 mph - 0.03 in Rain Light Rain
8:56 PM 57.9 °F 55.9 °F 93% 30.10 in 3.0 mi East 4.6 mph - 0.14 in Rain Light Rain
9:56 PM 57.0 °F 55.9 °F 96% 30.10 in 5.0 mi East 5.8 mph - 0.19 in Rain Light Rain
10:22 PM 57.2 °F 55.4 °F 94% 30.10 in 6.0 mi East 8.1 mph - 0.00 in   Overcast
10:42 PM 57.2 °F 55.4 °F 94% 30.10 in 6.0 mi ENE 6.9 mph - 0.01 in   Overcast
10:56 PM 57.0 °F 55.9 °F 96% 30.10 in 7.0 mi North 4.6 mph - 0.01 in   Overcast
11:23 PM 57.2 °F 55.4 °F 94% 30.10 in 9.0 mi East 3.5 mph - N/A   Overcast
11:56 PM 57.0 °F 55.0 °F 93% 30.09 in 9.0 mi ENE 4.6 mph - N/A   Overcast